Location: Prague
(50.0830°N, 14.4670°E)
Time: 10:00:38
(UTC+02:00)

RS-15 - Pass Details

Date: 10 April 2023
Orbit: 1885 x 2159 km, 64.8° (Epoch: 29 May)

Event Time Altitude Azimuth Distance (km) Brightness Sun altitude
Rises 23:13:01 0° 319° (NW) 5,647 11.7 -27.1°
Reaches altitude 10° 23:16:29 10° 319° (NW) 4,617 10.9 -27.3°
Maximum altitude 23:28:30 80° 235° (SW) 2,070 8.0 -28.3°
Enters shadow 23:32:45 47° 158° (SSE) 2,515 8.1 -28.6°
